sat.trackr.live / text

‹ back to catalog

STARLINK-34574

NORAD 64714 · 2025-142U

PAYLOAD ACTIVE UNKNOWN

§ Identity

Operator
Country
US
Launch date
2025-06-28
Launch site
AFWTR
Launch vehicle
Mass (kg)
RCS (m²)

Purposes: comms

External: N2YO · Heavens-Above · Gunter

§ Orbital elements

Epoch: 2026-09-20T04:35:29.257440Z

Period
94.14 min
Inclination
70.0000°
Eccentricity
0.0002865
Mean motion
15.29566445 rev/d
Perigee alt
475.1 km
Apogee alt
479.1 km
Semi-major
6,855.2 km
B*
4.1643e-4
RAAN
181.7192°
Arg perigee
268.8977°
Mean anomaly
91.1870°
Rev number
6,868

§ Raw data

STARLINK-345741 64714U 25142U   26263.19131085  .00011857  00000+0  41643-3 0  99952 64714  70.0000 181.7192 0002865 268.8977  91.1870 15.29566445 68689

JSON: /api/v1/satellites/64714 · /tle

For live sub-satellite position, see the globe view (requires WebGL).

§ Visibility from observer

Set your observer location to see the next 7 days of passes ≥ 10°. The values pass through the URL so the page stays shareable.

No JS? Fill the form by hand. The geolocation button needs JavaScript.